Flag for South Africa Weather past 2 weeks in East London, South Africa

Now
72 °F

Clear.


Feels Like: 77 °F
Forecast: 62 / 77 °F
Wind: 12 mph from Southwest

Location: East London

Current Time: May 23, 2015 at 7:27:41 PM

Latest Report: May 23, 2015 at 7:00 PM


Visibility: 10 mi

Pressure: 30.01 "Hg

Humidity: 50%

Dew point: 52 °F

Location of East LondonLocation

Historic Weather in East London — Graph

°F

East London temperature yesterday

Maximum temperature yesterday: 70 °F (at 12:00 PM)
Minimum temperature yesterday: 59 °F (at 8:00 AM)
Average temperature yesterday: 66 °F

Past Weeks' High & Low Weather Summary

 TemperatureHumidityPressure
High90 °F (May 23, 1:00 PM)100% (May 11, 5:00 AM)30.45 "Hg (May 11, 5:00 AM)
Low52 °F (May 17, 6:00 AM)24% (May 23, 1:00 PM)29.86 "Hg (May 13, 2:00 PM)
Average67 °F71%30.08 "Hg
* Reported May 8 6:00 PM — May 23 6:00 PM, East London, Weather by CustomWeather, © 2015

Note: Actual official high and low records may vary slightly from our data, if they occured in-between our weather recording intervals... More about our weather records

Advertising

East London weather history for previous 24 hours

 ConditionsComfort  
Time TempWeatherWind HumidityBarometerVisibility
6:00 PM
Sat, May 23
72 °FClear.5 mph57%29.92 "Hg10 mi
5:00 PM73 °FClear.3 mph69%29.92 "Hg10 mi
4:00 PM81 °FSunny.3 mph58%29.92 "Hg10 mi
3:00 PM82 °FSunny.2 mph45%29.92 "Hg10 mi
2:00 PM88 °FPassing clouds.5 mph27%29.92 "HgN/A
1:00 PM90 °FPassing clouds.10 mph24%29.95 "HgN/A
12:00 PM88 °FPassing clouds.10 mph27%29.98 "HgN/A
11:00 AM84 °FPassing clouds.8 mph33%30.01 "HgN/A
10:00 AM81 °FPassing clouds.8 mph39%30.01 "HgN/A
9:00 AM77 °FPassing clouds.6 mph42%30.04 "HgN/A
8:59 AM77 °FPassing clouds.6 mph42%30.04 "HgN/A
8:00 AM73 °FPassing clouds.9 mph44%30.04 "HgN/A
7:54 AM73 °FPassing clouds.9 mph44%30.04 "HgN/A
7:00 AM70 °FPassing clouds.9 mph46%30.04 "HgN/A
6:00 AM64 °FPassing clouds.6 mph56%30.04 "HgN/A
5:00 AM61 °FPassing clouds.7 mph72%30.04 "HgN/A
8:00 PM
Fri, May 22
64 °FPassing clouds.13 mph88%30.24 "HgN/A
7:00 PM66 °FPassing clouds.13 mph88%30.24 "HgN/A
Weather by CustomWeather, © 2015

See weather overviewHow to use our weather pages